This is the latest recevied weather packets stored in our database for station/object BMCB-11. If no packets are shown the sender has not sent any weather packets the latest 10 day(s).
| Time | Temp. | Humidity | Pressure | Rain* | Wind** | Luminosity | Snow |
|---|---|---|---|---|---|---|---|
| 1777272622 | 8.33° C | 72% | 1024.5 hPa | 0 mm | - | 138 W/m² | - |
| 1777270244 | 7.78° C | 74% | 1024.5 hPa | 0 mm | - | 74 W/m² | - |
| 1777266646 | 6.67° C | 76% | 1024.3 hPa | 0 mm | - | 24 W/m² | - |
| 1777258846 | 6.11° C | 79% | 1024.2 hPa | 0 mm | - | 0 W/m² | - |
| 1777258244 | 6.11° C | 77% | 1024.2 hPa | 0 mm | - | 0 W/m² | - |
| 1777257048 | 6.67° C | 76% | 1024.2 hPa | 0 mm | - | 0 W/m² | - |
| 1777252815 | 7.22° C | 77% | 1024.3 hPa | 0 mm | - | 0 W/m² | - |
| 1777251614 | 7.22° C | 78% | 1024.5 hPa | 0 mm | - | 0 W/m² | - |
| 1777245620 | 7.78° C | 81% | 1025 hPa | 0 mm | - | 0 W/m² | - |
| 1777243817 | 8.33° C | 78% | 1024.9 hPa | 0 mm | - | 0 W/m² | - |
| 1777243222 | 8.89° C | 77% | 1024.9 hPa | 0 mm | - | 0 W/m² | - |
| 1777240228 | 10.56° C | 70% | 1024.5 hPa | 0 mm | - | 0 W/m² | - |
| 1777231849 | 13.33° C | 57% | 1024.1 hPa | 0 mm | - | 0 W/m² | - |
| 1777231220 | 13.33° C | 57% | 1024.1 hPa | 0 mm | - | 0 W/m² | - |
| 1777228821 | 15° C | 52% | 1023.7 hPa | 0 mm | - | 10 W/m² | - |
| 1777228220 | 15° C | 51% | 1023.7 hPa | 0 mm | - | 16 W/m² | - |
| 1777224622 | 16.67° C | 45% | 1023.4 hPa | 0 mm | - | 102 W/m² | - |
| 1777222222 | 17.22° C | 46% | 1023.5 hPa | 0 mm | - | 126 W/m² | - |
| 1777221635 | 17.78° C | 46% | 1023.5 hPa | 0 mm | - | 174 W/m² | - |
| 1777218021 | 17.78° C | 43% | 1023.7 hPa | 0 mm | - | 282 W/m² | - |
| 1777217421 | 18.33° C | 43% | 1023.8 hPa | 0 mm | - | 332 W/m² | - |
| 1777213833 | 17.78° C | 46% | 1024.2 hPa | 0 mm | - | 436 W/m² | - |
| 1777213220 | 17.78° C | 47% | 1024.3 hPa | 0 mm | - | 454 W/m² | - |
| 1777210822 | 17.78° C | 49% | 1024.4 hPa | 0 mm | - | 518 W/m² | - |
| 1777206053 | 17.22° C | 51% | 1024.9 hPa | 0 mm | - | 616 W/m² | - |
* Rain latest hour (hover to see other rain measurements)
** Current wind speed in m/s (hover to see current wind gust speed)